SA3VCC-15 Weather Reports


time (UTC)temp
C
wind
direction
speed
KPH
gust
KPH
rain 1hr
cm
rain 24hr
cm
rain mn
cm
humidity
%
barometer
mb
20260502232310 9 0.0 0.0 0.00 0.00 0.00 98 1005.6
20260502230210 9 0.0 0.0 0.00 0.00 0.00 97 1004.7
20260502224110 9 0.0 0.0 0.00 0.00 0.00 94 1004.6
20260502215910 10 0.0 0.0 0.00 0.00 0.00 88 1004.5
20260502213810 10 0.0 0.0 0.00 0.00 0.00 85 1004.5
20260502211710 10 0.0 0.0 0.00 0.00 0.00 83 1004.4
20260502205610 10 0.0 0.0 0.00 0.00 0.00 90 1004.3
20260502203510 10 0.0 0.0 0.00 0.00 0.00 92 1004.5
20260502195310 11 0.0 0.0 0.00 0.00 0.00 73 1004.5
20260502193210 12 0.0 0.0 0.00 0.00 0.00 56 1004.8
20260502191110 13 0.0 0.0 0.00 0.00 0.00 47 1004.2
20260502185010 14 0.0 0.0 0.00 0.00 0.00 46 1003.8
20260502180810 16 0.0 0.0 0.00 0.00 0.00 42 1003.1
20260502170510 18 0.0 0.0 0.00 0.00 0.00 32 1002.7
20260502162310 20 0.0 0.0 0.00 0.00 0.00 26 1002.6
20260502160210 21 0.0 0.0 0.00 0.00 0.00 25 1002.6
20260502123209 23 0.0 0.0 0.00 0.00 0.00 21 1004.3
20260502121109 24 0.0 0.0 0.00 0.00 0.00 18 1004.6
20260502115009 28 0.0 0.0 0.00 0.00 0.00 16 1004.8
20260502110809 27 0.0 0.0 0.00 0.00 0.00 19 1005.5
20260502104709 26 0.0 0.0 0.00 0.00 0.00 20 1005.5
20260502102609 25 0.0 0.0 0.00 0.00 0.00 20 1005.7
20260502100509 25 0.0 0.0 0.00 0.00 0.00 20 1005.9
20260502090209 23 0.0 0.0 0.00 0.00 0.00 24 1006.5
20260502065608 21 0.0 0.0 0.00 0.00 0.00 30 1007.5
20260502063508 19 0.0 0.0 0.00 0.00 0.00 35 1007.6
20260502061408 17 0.0 0.0 0.00 0.00 0.00 39 1007.6
20260502055308 15 0.0 0.0 0.00 0.00 0.00 43 1007.8
20260502053208 12 0.0 0.0 0.00 0.00 0.00 49 1007.8
20260502051108 12 0.0 0.0 0.00 0.00 0.00 51 1007.8
20260502045008 11 0.0 0.0 0.00 0.00 0.00 53 1007.8
20260502040808 10 0.0 0.0 0.00 0.00 0.00 57 1008.2
20260502034708 10 0.0 0.0 0.00 0.00 0.00 57 1008.3
20260502032608 8 0.0 0.0 0.00 0.00 0.00 61 1008.4
20260502030508 8 0.0 0.0 0.00 0.00 0.00 62 1008.5
20260502024408 9 0.0 0.0 0.00 0.00 0.00 60 1008.6
20260502022308 9 0.0 0.0 0.00 0.00 0.00 59 1008.8
20260502020208 10 0.0 0.0 0.00 0.00 0.00 57 1009.1
20260502014108 10 0.0 0.0 0.00 0.00 0.00 55 1009.2
20260502012008 11 0.0 0.0 0.00 0.00 0.00 54 1009.2
20260502005908 11 0.0 0.0 0.00 0.00 0.00 50 1009.4
20260502003808 12 0.0 0.0 0.00 0.00 0.00 48 1009.6
20260502001708 12 0.0 0.0 0.00 0.00 0.00 46 1009.8
20260501235608 12 0.0 0.0 0.00 0.00 0.00 46 1009.9
20260501233508 13 0.0 0.0 0.00 0.00 0.00 44 1010.1